| time (UTC) | temp F | wind direction | speed MPH | gust MPH | rain 1hr in | rain 24hr in | rain mn in | humidity % | barometer mb |
| 20260903124551 | 83 | 215 | 2.0 | 6.0 | 0.00 | 0.00 | 0.00 | 76 | 1019.4 |
| 20260903123051 | 83 | 146 | 2.0 | 8.0 | 0.00 | 0.00 | 0.00 | 74 | 1019.6 |
| 20260903121550 | 83 | 112 | 2.0 | 7.0 | 0.00 | 0.00 | 0.00 | 74 | 1019.6 |
| 20260903120053 | 83 | 212 | 2.0 | 10.0 | 0.00 | 0.00 | 0.00 | 73 | 1019.6 |
| 20260903114550 | 83 | 144 | 3.0 | 8.0 | 0.00 | 0.00 | 0.00 | 71 | 1019.8 |
| 20260903113048 | 84 | 149 | 3.0 | 8.0 | 0.00 | 0.00 | 0.00 | 70 | 1019.6 |
| 20260903111549 | 83 | 167 | 2.0 | 8.0 | 0.00 | 0.00 | 0.00 | 72 | 1019.7 |
| 20260903110046 | 84 | 255 | 3.0 | 8.0 | 0.00 | 0.00 | 0.00 | 67 | 1019.8 |
| 20260903104549 | 85 | 113 | 2.0 | 9.0 | 0.00 | 0.00 | 0.00 | 64 | 1019.9 |
| 20260903103044 | 85 | 224 | 3.0 | 8.0 | 0.00 | 0.00 | 0.00 | 60 | 1020.0 |
| 20260903101541 | 85 | 224 | 1.0 | 4.0 | 0.00 | 0.00 | 0.00 | 61 | 1019.9 |
| 20260903100039 | 84 | 203 | 2.0 | 6.0 | 0.00 | 0.00 | 0.00 | 65 | 1020.2 |
| 20260903094541 | 84 | 214 | 2.0 | 7.0 | 0.00 | 0.00 | 0.00 | 64 | 1020.1 |
| 20260903093049 | 82 | 315 | 1.0 | 4.0 | 0.00 | 0.00 | 0.00 | 63 | 1020.1 |
| 20260903091535 | 82 | 240 | 1.0 | 5.0 | 0.00 | 0.00 | 0.00 | 63 | 1020.3 |
| 20260903090034 | 81 | 222 | 1.0 | 4.0 | 0.00 | 0.00 | 0.00 | 64 | 1020.2 |
| 20260903084528 | 80 | 239 | 2.0 | 4.0 | 0.00 | 0.00 | 0.00 | 66 | 1020.0 |
| 20260903083024 | 79 | 231 | 1.0 | 4.0 | 0.00 | 0.00 | 0.00 | 68 | 1020.1 |
| 20260903081537 | 78 | 277 | 1.0 | 4.0 | 0.00 | 0.00 | 0.00 | 69 | 1019.9 |
| 20260903080019 | 78 | 208 | 1.0 | 5.0 | 0.00 | 0.00 | 0.00 | 70 | 1019.9 |
| 20260903074516 | 77 | 277 | 1.0 | 5.0 | 0.00 | 0.00 | 0.00 | 72 | 1019.9 |
| 20260903073016 | 76 | 286 | 2.0 | 4.0 | 0.00 | 0.00 | 0.00 | 75 | 1019.7 |
| 20260903071514 | 75 | 285 | 2.0 | 4.0 | 0.00 | 0.00 | 0.00 | 78 | 1019.7 |
| 20260903070009 | 75 | 242 | 0.0 | 2.0 | 0.00 | 0.00 | 0.00 | 80 | 1019.7 |
| 20260903064508 | 75 | 241 | 0.0 | 1.0 | 0.00 | 0.00 | 0.00 | 79 | 1019.7 |
| 20260903063004 | 74 | 292 | 0.0 | 1.0 | 0.00 | 0.00 | 0.00 | 76 | 1019.6 |
| 20260903061503 | 73 | 27 | 0.0 | 2.0 | 0.00 | 0.00 | 0.00 | 74 | 1019.4 |
| 20260903060059 | 72 | 39 | 0.0 | 5.0 | 0.00 | 0.00 | 0.00 | 75 | 1019.4 |
| 20260903054557 | 72 | 274 | 0.0 | 5.0 | 0.00 | 0.00 | 0.00 | 74 | 1019.1 |
| 20260903053054 | 71 | 345 | 0.0 | 4.0 | 0.00 | 0.00 | 0.00 | 76 | 1019.1 |
| 20260903051553 | 70 | 335 | 1.0 | 5.0 | 0.00 | 0.00 | 0.00 | 75 | 1018.9 |
| 20260903050052 | 70 | 335 | 1.0 | 5.0 | 0.00 | 0.00 | 0.00 | 76 | 1018.8 |
| 20260903044553 | 69 | 309 | 1.0 | 4.0 | 0.00 | 0.00 | 0.00 | 76 | 1018.6 |
| 20260903043052 | 69 | 326 | 0.0 | 5.0 | 0.00 | 0.00 | 0.00 | 78 | 1018.5 |
| 20260903041549 | 69 | 321 | 0.0 | 3.0 | 0.00 | 0.00 | 0.00 | 81 | 1018.5 |
| 20260903040048 | 69 | 10 | 0.0 | 2.0 | 0.00 | 0.00 | 0.00 | 82 | 1018.8 |
| 20260903034545 | 69 | 1 | 0.0 | 2.0 | 0.00 | 0.00 | 0.00 | 82 | 1018.8 |
| 20260903033044 | 69 | 349 | 0.0 | 3.0 | 0.00 | 0.00 | 0.00 | 82 | 1018.8 |
| 20260903031544 | 70 | 312 | 3.0 | 9.0 | 0.00 | 0.00 | 0.00 | 80 | 1018.8 |
| 20260903030042 | 69 | 8 | 4.0 | 7.0 | 0.00 | 0.00 | 0.00 | 81 | 1018.7 |
| 20260903024540 | 69 | 337 | 2.0 | 6.0 | 0.00 | 0.00 | 0.00 | 82 | 1018.9 |
| 20260903023056 | 69 | 315 | 2.0 | 8.0 | 0.00 | 0.00 | 0.00 | 84 | 1018.9 |
| 20260903021544 | 69 | 2 | 4.0 | 7.0 | 0.00 | 0.00 | 0.00 | 85 | 1018.9 |
| 20260903020036 | 69 | 8 | 2.0 | 6.0 | 0.00 | 0.00 | 0.00 | 85 | 1019.0 |
| 20260903014535 | 70 | 264 | 1.0 | 3.0 | 0.00 | 0.00 | 0.00 | 86 | 1018.9 |
| 20260903013033 | 70 | 354 | 2.0 | 6.0 | 0.00 | 0.00 | 0.00 | 86 | 1018.9 |
| 20260903011532 | 70 | 360 | 3.0 | 7.0 | 0.00 | 0.00 | 0.00 | 86 | 1018.8 |
| 20260903010032 | 71 | 359 | 2.0 | 6.0 | 0.00 | 0.00 | 0.00 | 84 | 1018.8 |
| 20260903004533 | 71 | 27 | 2.0 | 6.0 | 0.00 | 0.00 | 0.00 | 85 | 1018.7 |
| 20260903003032 | 71 | 322 | 5.0 | 8.0 | 0.00 | 0.00 | 0.00 | 85 | 1018.8 |
| 20260903001526 | 71 | 26 | 3.0 | 8.0 | 0.00 | 0.00 | 0.00 | 87 | 1018.9 |
| 20260903000025 | 70 | 319 | 4.0 | 9.0 | 0.00 | 0.00 | 0.00 | 88 | 1018.9 |
| 20260902234523 | 70 | 6 | 3.0 | 6.0 | 0.00 | 0.00 | 0.00 | 88 | 1019.1 |
| 20260902233023 | 69 | 11 | 4.0 | 7.0 | 0.00 | 0.00 | 0.00 | 89 | 1019.0 |
| 20260902231530 | 69 | 4 | 3.0 | 6.0 | 0.00 | 0.00 | 0.00 | 90 | 1019.0 |
| 20260902230019 | 69 | 15 | 2.0 | 5.0 | 0.00 | 0.00 | 0.00 | 90 | 1019.1 |
| 20260902224519 | 70 | 349 | 0.0 | 2.0 | 0.00 | 0.00 | 0.00 | 90 | 1019.1 |
| 20260902223023 | 70 | 348 | 0.0 | 2.0 | 0.00 | 0.00 | 0.00 | 90 | 1019.1 |
| 20260902221517 | 70 | 354 | 0.0 | 2.0 | 0.00 | 0.00 | 0.00 | 89 | 1019.0 |
| 20260902220019 | 70 | 331 | 0.0 | 2.0 | 0.00 | 0.00 | 0.00 | 89 | 1018.9 |
| 20260902214516 | 70 | 360 | 0.0 | 1.0 | 0.00 | 0.00 | 0.00 | 88 | 1018.8 |
| 20260902213012 | 71 | 356 | 0.0 | 3.0 | 0.00 | 0.00 | 0.00 | 88 | 1018.7 |
| 20260902211511 | 71 | 329 | 0.0 | 4.0 | 0.00 | 0.00 | 0.00 | 88 | 1018.6 |
| 20260902210011 | 71 | 1 | 0.0 | 2.0 | 0.00 | 0.00 | 0.00 | 88 | 1018.6 |
| 20260902204511 | 71 | 1 | 0.0 | 1.0 | 0.00 | 0.00 | 0.00 | 88 | 1018.7 |
| 20260902203010 | 71 | 341 | 0.0 | 4.0 | 0.00 | 0.00 | 0.00 | 88 | 1018.5 |
| 20260902201517 | 71 | 348 | 0.0 | 3.0 | 0.00 | 0.00 | 0.00 | 89 | 1018.6 |
| 20260902200011 | 72 | 35 | 0.0 | 0.0 | 0.00 | 0.00 | 0.00 | 88 | 1018.5 |
| 20260902194508 | 72 | 37 | 0.0 | 0.0 | 0.00 | 0.00 | 0.00 | 87 | 1018.5 |
| 20260902193006 | 72 | 36 | 0.0 | 1.0 | 0.00 | 0.00 | 0.00 | 86 | 1018.4 |
| 20260902191512 | 72 | 5 | 0.0 | 4.0 | 0.00 | 0.00 | 0.00 | 86 | 1018.4 |
| 20260902190006 | 72 | 319 | 0.0 | 2.0 | 0.00 | 0.00 | 0.00 | 86 | 1018.3 |
| 20260902184505 | 73 | 84 | 0.0 | 1.0 | 0.00 | 0.00 | 0.00 | 87 | 1018.3 |
| 20260902183005 | 74 | 83 | 1.0 | 3.0 | 0.00 | 0.00 | 0.00 | 86 | 1018.2 |
| 20260902181504 | 74 | 122 | 0.0 | 3.0 | 0.00 | 0.00 | 0.00 | 85 | 1018.1 |
| 20260902180006 | 74 | 82 | 1.0 | 2.0 | 0.00 | 0.00 | 0.00 | 84 | 1018.0 |
| 20260902174505 | 75 | 86 | 2.0 | 4.0 | 0.00 | 0.00 | 0.00 | 82 | 1017.9 |
| 20260902173002 | 75 | 166 | 1.0 | 3.0 | 0.00 | 0.00 | 0.00 | 79 | 1018.1 |
| 20260902171500 | 76 | 99 | 1.0 | 6.0 | 0.00 | 0.00 | 0.00 | 80 | 1018.0 |
| 20260902170100 | 76 | 123 | 3.0 | 6.0 | 0.00 | 0.00 | 0.00 | 82 | 1018.0 |
| 20260902164603 | 76 | 120 | 1.0 | 5.0 | 0.00 | 0.00 | 0.00 | 84 | 1018.0 |
| 20260902163102 | 76 | 71 | 2.0 | 6.0 | 0.00 | 0.00 | 0.00 | 84 | 1018.0 |
| 20260902161559 | 77 | 136 | 3.0 | 7.0 | 0.00 | 0.00 | 0.00 | 81 | 1018.1 |
| 20260902160055 | 79 | 124 | 1.0 | 6.0 | 0.00 | 0.00 | 0.00 | 77 | 1018.1 |
| 20260902154607 | 80 | 139 | 2.0 | 9.0 | 0.00 | 0.00 | 0.00 | 76 | 1018.3 |
| 20260902153053 | 80 | 238 | 2.0 | 6.0 | 0.00 | 0.00 | 0.00 | 75 | 1018.2 |
| 20260902151554 | 81 | 266 | 1.0 | 6.0 | 0.00 | 0.00 | 0.00 | 73 | 1018.3 |
| 20260902150052 | 81 | 250 | 2.0 | 9.0 | 0.00 | 0.00 | 0.00 | 71 | 1018.3 |
| 20260902144550 | 82 | 174 | 3.0 | 9.0 | 0.00 | 0.00 | 0.00 | 71 | 1018.3 |
| 20260902143052 | 83 | 219 | 4.0 | 8.0 | 0.00 | 0.00 | 0.00 | 69 | 1018.4 |
| 20260902141552 | 83 | 142 | 3.0 | 7.0 | 0.00 | 0.00 | 0.00 | 69 | 1018.6 |
| 20260902140051 | 83 | 125 | 1.0 | 7.0 | 0.00 | 0.00 | 0.00 | 70 | 1018.6 |
| 20260902134546 | 82 | 226 | 1.0 | 10.0 | 0.00 | 0.00 | 0.00 | 73 | 1018.7 |
| 20260902133048 | 82 | 122 | 3.0 | 7.0 | 0.00 | 0.00 | 0.00 | 73 | 1018.9 |
| 20260902131549 | 82 | 145 | 3.0 | 8.0 | 0.00 | 0.00 | 0.00 | 73 | 1019.0 |
| 20260902130045 | 82 | 236 | 3.0 | 9.0 | 0.00 | 0.00 | 0.00 | 73 | 1019.1 |